This demonstration page uses our WeatherBlox Daily Observations layout. Learn more.

Hourly Observations for June 26, 2020

Temp ( °F °C ) Dew Point ( °F °C ) Humidity (%) Winds ( mph kmh ) Pressure ( in mb ) Visibility ( mi km ) Precip ( " mm )
12:15 am 00:15 Clear 79 26.2 53 11.4 40 40 Calm 29.71 1006 10 16.0934 0 0
12:35 am 00:35 Clear 76 24.6 56 13.3 49 49 NE 14 22 29.74 1007 10 16.0934 0 0
12:55 am 00:55 Partly Cloudy 77 24.8 56 13.5 50 50 NE 12 19 29.74 1007 10 16.0934 0 0
1:15 am 01:15 Partly Cloudy 76 24.7 57 13.8 51 51 ENE 8 13 29.78 1008 10 16.0934 0 0
1:35 am 01:35 Clear 73 23 58 14.6 59 59 NNE 7 11 29.81 1010 10 16.0934 0 0
1:55 am 01:55 Clear 73 22.6 59 15 62 62 Calm 29.83 1010 10 16.0934 0 0
2:15 am 02:15 Clear 71 21.5 60 15.5 69 69 NNE 3 6 29.82 1010 10 16.0934 0 0
2:35 am 02:35 Clear 71 21.9 59 15.1 65 65 E 6 9 29.79 1009 10 16.0934 0 0
2:55 am 02:55 Clear 71 21.5 60 15.3 68 68 ESE 3 6 29.8 1009 10 16.0934 0 0
3:15 am 03:15 Clear 72 22 59 15 65 65 Calm 29.78 1009 10 16.0934 0 0
3:35 am 03:35 Clear 70 21.3 60 15.3 69 69 Calm 29.81 1009 10 16.0934 0 0
3:55 am 03:55 Clear 69 20.5 60 15.7 74 74 N 3 6 29.82 1010 10 16.0934 0 0
4:15 am 04:15 Clear 69 20.3 60 15.5 74 74 Calm 29.83 1010 10 16.0934 0 0
4:35 am 04:35 Clear 69 20.6 61 15.9 75 75 Calm 29.84 1011 10 16.0934 0 0
4:55 am 04:55 Clear 69 20.7 60 15.7 73 73 N 5 7 29.85 1011 10 16.0934 0 0
5:15 am 05:15 Clear 70 21.2 60 15.5 70 70 N 6 9 29.85 1011 10 16.0934 0 0
5:35 am 05:35 Clear 70 21 60 15.3 70 70 N 15 24 29.86 1011 10 16.0934 0 0
5:55 am 05:55 Clear 69 20.7 59 15.1 70 70 N 10 17 29.84 1011 10 16.0934 0 0
6:15 am 06:15 Sunny 68 20.2 59 15 72 72 N 8 13 29.85 1011 10 16.0934 0 0
6:35 am 06:35 Sunny 68 20.2 59 15.1 73 73 NE 7 11 29.86 1011 10 16.0934 0 0
6:55 am 06:55 Sunny 68 20.1 60 15.5 75 75 N 5 7 29.86 1011 10 16.0934 0 0
7:15 am 07:15 Sunny 68 20.1 60 15.7 76 76 Calm 29.88 1012 10 16.0934 0 0
7:35 am 07:35 Sunny 69 20.3 61 16.1 77 77 Calm 29.87 1012 10 16.0934 0 0
7:55 am 07:55 Sunny 68 20.1 62 16.6 80 80 E 5 7 29.87 1011 10 16.0934 0 0
8:15 am 08:15 Sunny 72 22.2 61 16.2 69 69 ENE 3 6 29.86 1011 10 16.0934 0 0
8:35 am 08:35 Sunny 73 22.9 61 16.2 66 66 ENE 5 7 29.85 1011 10 16.0934 0 0
8:55 am 08:55 Sunny 75 23.8 61 16.1 62 62 E 8 13 29.82 1010 10 16.0934 0 0
9:15 am 09:15 Sunny 75 24.1 61 16 61 61 ESE 9 15 29.81 1010 10 16.0934 0 0
9:35 am 09:35 Sunny 76 24.5 62 16.4 61 61 E 6 9 29.84 1011 10 16.0934 0 0
9:55 am 09:55 Sunny 79 26 62 16.7 57 57 NNE 5 7 29.84 1010 10 16.0934 0 0
10:15 am 10:15 Sunny 79 26.1 62 16.6 56 56 ENE 5 7 29.81 1009 10 16.0934 0 0
10:35 am 10:35 Sunny 80 26.9 62 16.4 53 53 NE 5 7 29.82 1010 10 16.0934 0 0
10:55 am 10:55 Sunny 81 27 60 15.4 49 49 NE 5 7 29.81 1010 10 16.0934 0 0
11:15 am 11:15 Sunny 82 27.8 62 16.5 50 50 N 5 7 29.8 1009 10 16.0934 0 0
11:35 am 11:35 Sunny 83 28.2 61 16.2 48 48 N 8 13 29.8 1009 10 16.0934 0 0
11:55 am 11:55 Sunny 82 27.9 61 16.2 49 49 NNE 7 11 29.82 1010 10 16.0934 0 0
12:15 pm 12:15 Sunny 82 27.5 61 16 50 50 NNE 8 13 29.81 1009 10 16.0934 0 0
12:35 pm 12:35 Sunny 83 28.3 62 16.4 48 48 NNE 8 13 29.82 1010 10 16.0934 0 0
12:55 pm 12:55 Sunny 83 28.4 62 16.6 49 49 N 6 9 29.81 1009 10 16.0934 0 0
1:15 pm 13:15 Sunny 84 29 62 16.5 47 47 NE 9 15 29.81 1009 10 16.0934 0 0
1:35 pm 13:35 Sunny 85 29.6 62 16.5 45 45 NNE 10 17 29.8 1009 10 16.0934 0 0
1:55 pm 13:55 Sunny 85 29.6 64 18 50 50 NNE 7 11 29.79 1009 10 16.0934 0 0
2:15 pm 14:15 Sunny 85 29.5 64 17.9 50 50 NNE 8 13 29.79 1009 10 16.0934 0 0
2:35 pm 14:35 Sunny 86 30.1 63 17.2 46 46 NNE 9 15 29.79 1009 10 16.0934 0 0
2:55 pm 14:55 Sunny 86 30.2 62 16.8 44 44 ENE 9 15 29.78 1008 10 16.0934 0 0
3:15 pm 15:15 Sunny 86 30.2 62 16.5 44 44 E 7 11 29.78 1008 10 16.0934 0 0
3:35 pm 15:35 Sunny 88 30.9 62 16.7 42 42 E 7 11 29.77 1008 10 16.0934 0 0
3:55 pm 15:55 Sunny 87 30.8 63 17.3 44 44 NE 7 11 29.77 1008 10 16.0934 0 0
4:15 pm 16:15 Sunny 88 30.9 62 16.7 42 42 ENE 6 9 29.76 1008 10 16.0934 0 0
4:35 pm 16:35 Sunny 87 30.8 61 16.2 41 41 NE 8 13 29.76 1008 10 16.0934 0 0
4:55 pm 16:55 Sunny 88 31 61 16.3 41 41 ENE 7 11 29.76 1008 10 16.0934 0 0
5:15 pm 17:15 Sunny 88 31 60 15.7 40 40 ENE 8 13 29.75 1007 10 16.0934 0 0
5:35 pm 17:35 Sunny 88 31 61 15.9 40 40 NE 10 17 29.74 1007 10 16.0934 0 0
5:55 pm 17:55 Sunny 88 31.1 62 16.5 41 41 ENE 8 13 29.73 1007 10 16.0934 0 0
6:15 pm 18:15 Sunny 88 30.9 61 16.1 41 41 ENE 6 9 29.73 1007 10 16.0934 0 0
6:35 pm 18:35 Sunny 87 30.6 62 16.5 43 43 ENE 7 11 29.73 1007 10 16.0934 0 0
6:55 pm 18:55 Sunny 87 30.4 62 16.9 44 44 NE 9 15 29.73 1007 10 16.0934 0 0
7:15 pm 19:15 Sunny 86 29.9 64 17.8 48 48 NE 7 11 29.74 1007 10 16.0934 0 0
7:35 pm 19:35 Sunny 85 29.5 65 18.2 51 51 NE 7 11 29.75 1008 10 16.0934 0 0
7:55 pm 19:55 Sunny 84 28.9 66 18.9 55 55 ENE 7 11 29.74 1007 10 16.0934 0 0
8:15 pm 20:15 Sunny 83 28.1 66 19.1 58 58 ENE 6 9 29.74 1007 10 16.0934 0 0
8:35 pm 20:35 Sunny 81 27 68 19.8 65 65 NE 6 9 29.74 1007 10 16.0934 0 0
8:55 pm 20:55 Sunny 78 25.8 68 20 70 70 NE 7 11 29.76 1008 10 16.0934 0 0
9:15 pm 21:15 Clear 77 25 67 19.6 72 72 NNE 7 11 29.78 1008 10 16.0934 0 0
9:35 pm 21:35 Clear 76 24.3 67 19.6 75 75 NNE 5 7 29.78 1009 10 16.0934 0 0
9:55 pm 21:55 Clear 75 23.8 67 19.6 77 77 NNE 6 9 29.79 1009 10 16.0934 0 0
10:15 pm 22:15 Clear 74 23.2 67 19.6 80 80 NNE 6 9 29.79 1009 10 16.0934 0 0
10:35 pm 22:35 Clear 73 23 67 19.6 81 81 NNE 6 9 29.79 1009 10 16.0934 0 0
10:55 pm 22:55 Clear with Nearby Thunderstorms 73 22.9 68 19.9 83 83 N 6 9 29.79 1009 10 16.0934 0 0
11:15 pm 23:15 Clear with Nearby Thunderstorms 73 22.7 68 20 85 85 NNE 7 11 29.8 1009 10 16.0934 0 0
11:35 pm 23:35 Clear 74 23.3 68 20 82 82 NNE 7 11 29.8 1009 10 16.0934 0 0
11:55 pm 23:55 Clear with Nearby Thunderstorms 73 23 68 20 83 83 ENE 7 11 29.79 1009 10 16.0934 0 0

Powered by AerisWeather